Погода в Верхних Ачаках

Россия / Чувашская Республика     55°48′46″N   46°20′47″E
темп.,
°C
ветер,
м/с
пор.,
м/с
влажн.,
%
обл.,
%
осадки,
мм/ч
давл.,
гПа
погр.,
м
20 июня, вс
вс2000:00+16з37895 0.0 102294
03:00+15з22905 0.0 102329
06:00+19з35845 0.0 1022148
09:00+23зсз34745 0.0 1022438
12:00+26зсз44655 0.0 1022949
15:00+27з44630 0.0 10221212
18:00+26з35765 0.0 1021242
21:00+21зюз23891 0.0 102125
21 июня, пн
пн2100:00+19зюз22890 0.0 102111
03:00+17юз22900 0.0 102215
06:00+20юз23840 0.0 1022119
09:00+24зюз34725 0.0 1022457
12:00+27з34633 0.0 1022977
15:00+28з33632 0.0 10211214
18:00+26зюз357722 0.1 1021220
21:00+22зюз228893 0.3 102123
22 июня, вт
вт2200:00+20зюз228810 0.0 102213
03:00+19зюз228942 0.0 102211
06:00+22зюз128496 0.0 1023107
09:00+26з22737 0.0 1023462
12:00+28з23635 0.0 10231106
15:00+29з335916 0.0 10221457
18:00+27зюз24730 0.0 1021170
21:00+22зюз22835 0.0 102113
23 июня, ср
ср2300:00+20зюз22871 0.0 102211
03:00+19юз22885 0.0 102211
06:00+22зюз23824 0.0 1022130
09:00+26з33685 0.0 1022467
12:00+28з34645 0.0 10211045
15:00+29з34605 0.0 10201124
18:00+26зюз3679100 3.0 1020112
21:00+23зюз239025 3.1 101942
24 июня, чт
чт2400:00+21з3388100 0.0 102050
03:00+20сз22890 0.0 102018
06:00+23зсз25855 0.0 1020160
09:00+27сз467231 0.0 1019444
12:00+30зсз34616 0.0 1019875
15:00+31з445971 0.0 1018896
18:00+28зюз4976100 0.1 1017328
21:00+24зсз410835 0.1 1017167